SNOOPI (59563 NORAD) Tracking and Keplerian Element Data

This shows tracking and keplerian element data for the satellite.

Feedback or suggestion? Click here.




ElementValue
Catalog59563
NameSNOOPI
Epoch Orbit786
Epoch Day159.92718826
Epoch Year2024
RAAN359.8032
Inclination51.6366
Eccentricity0.0005226
Argument of Perigee259.245
Mean Anonmoly100.7954
Mean Motion15.58206494
Decay Rate0.00081752
L11 59563U 98067WN 24159.92718826 .00081752 00000+0 10569-2 0 9997
L22 59563 51.6366 359.8032 0005226 259.2450 100.7954 15.58206494 7860



Live tracking and technical data element details for SNOOPI (NORAD 59563). SNOOPI can be tracked NOW for your location showing map with azimuth and elevation plus other details from your city location.







IsCatalogInMostPopularTable: catalog: 59563, numindb: 11
Update: records affected: 1



GetName: 59563 SNOOPI

Hit Count: updated at: Fri, 14 Jun 2024 18:56:03 GMT